Погода Фролово

Погода Фролово : погода сейчас, прогноз погоды и архив. Всё, что Вы хотите узнать о погоде Фролово!

Поиск расширенной информации на нашем сайте:

Другие новости

Новости СМИ2

Главная страница сайта

Новости сайта

03.07.2017

Напоминаем, что на нашем специализированном сайте Метеоцентр.Азия вы можете получить высокодетализированные автоматические прогнозы погоды по пунктам России, СНГ и мира в авиационном формате (включающие направление и скорость ветра, видимость, явления погоды, количество и форму облачности, нижнюю и верхнюю границу облачности).


Погода Фролово - сегодня

Время (UTC), дата Ветер
(°,м/с) 
Видим.   Явления Облачность Т
(°С)
Тd
(°С)
f(%) Тe
(°С)
Pmin
(гПа)
dP
(гПа)
Po
(мм)
O2
(г/м3)
Тmin Tmax R s Состояние
почвы
09 16.08.18 180 (Ю) 10 км    ясно 
+30 +8.4 26 +30  1017.4  -0.5  753  272           
12 16.08.18 300 (СЗ) 10 км    ясно 
+31.4 +8.3 24 +31  1016.2  -1.1  752  270           
15 16.08.18 тихо ()   10 км    ясно 
+30.5 +8.9 26 +31  1015.3  -0.9  751  271    +31.6       
18 16.08.18 тихо ()   20000 м    ясно 
+19.7 +11.8 60 +23  1016.3  0.5  752  280           
21 16.08.18 тихо ()   20000 м    ясно 
+18.3 +11.5 65 +21  1016.1  -0.3  752  282           
00 17.08.18 тихо ()   20000 м    ясно 
+14.6 +10.7 77 +17  1015.9  -0.3  751  285           
03 17.08.18 тихо ()   10 км    ясно 
+16.8 +11 69 +19  1016  0.2  751  283  +13.9        сухая 
06 17.08.18 260 (З) 10 км    ясно 
+27.6 +11.5 37 +31  1015.6  0.1  752  273           
09 17.08.18 340 (С) 10 км    3/3 1000 м 
[Cu med, cong]
+32.3 +8.6 23 +32  1014.3  -1.1  751  269           
12 17.08.18 030 (СВ) 10 км    6/0 верхняя 
[Cu med, cong|Ci fib]
+32.1 +8.9 24 +32  1013.5  -0.8  750  269           
15 17.08.18 360 (С) 10 км    6/3 1000 м верхняя 
[Cu med, cong|Cs]
+27.7 +12.9 40 +33  1013.9  0.2  750  272    +33.1       
18 17.08.18 020 (С) 20000 м    8/0 средняя 
[Ac und]
+23.1 +14.8 60 +31  1015.6  1.5  751  276           
21 17.08.18 050 (СВ) 3{11}  20000 м    ясно 
+19.9 +14.2 70 +28  1016.1  0.4  752  279           
00 18.08.18 040 (СВ) 20000 м    8/0 средняя 
[Ac und]
+17.6 +12 70 +22  1016.4  0.2  752  282           
03 18.08.18 040 (СВ) 10 км    ясно 
+15.9 +10.4 70 +18  1017.5  752  285  +15.3        сухая 
06 18.08.18 040 (СВ) 6-12{12}  10 км    ясно 
+20.8 +10.2 51 +22  1018.3  753  280           
09 18.08.18 040 (СВ) 6-12{12}  10 км    ясно 
+23.6 +4.8 30 +24  1018.1  0.1  753  279           
12 18.08.18 050 (СВ) 5{11}  10 км    ясно 
+24.9 +3 24 +25  1018  753  278           
15 18.08.18 030 (СВ) 10 км    ясно 
+23.2 +4.6 30 +23  1018.1  0.1  753  279    +25.3       
18 18.08.18 050 (СВ) 20000 м    ясно 
+17.8 +4.7 42 +19  1020  1.5  754  285           
21 18.08.18 060 (СВ) 20000 м    ясно 
+17.4 +3.8 40 +18  1020.3  0.3  755  285           
00 19.08.18 030 (СВ) 20000 м    ясно 
+11.9 +5 63 +12  1021.5  0.9  755  291           
03 19.08.18 020 (С) 10 км    ясно 
+12.5 +6.9 69 +13  1021.9  0.5  756  290  +10.1        сухая 
06 19.08.18 060 (СВ) 10 км    ясно 
+19.8 +6.7 42 +21  1022.1  0.5  756  283           
09 19.08.18 020 (С) 10 км    ясно 
+23 +3.9 29 +23  1021.1  -0.9  755  280           
Время (UTC), дата Ветер
(°,м/с) 
Видим.   Явления Облачность Т
(°С)
Тd
(°С)
f(%) Тe
(°С)
Pmin
(гПа)
dP
(гПа)
Po
(мм)
O2
(г/м3)
Тmin Tmax R s Состояние
почвы

Для получения пояснительной информации подведите курсор к названию столбца.

ПОГОДА Фролово - архив

Всё, что Вы хотите узнать о погоде Фролово - удобно и подробно!

Выберите нужную дату (начиная с 1 января 2015* года) и нажмите кнопку "Найти".
Будут отображены архивные сводки погоды по пункту Фролово, начиная с указанной даты.


Отображать данные в формате CSV (для использования в таблицах Excel)


Внимание! Наш архив погоды предназначен исключительно для личного некоммерческого использования в познавательных целях. Если Вам необходимы официальные справки о состоянии погоды (для производственных, юридических, коммерческих и т.п. целей), обращайтесь в органы Росгидромета.

*Примечание: данная дата относится к архиву по метеостанциям СССР (Россия, СНГ, Балтия).
Архив по метеостанциям Зарубежной Европы и Азии (кроме Китая) хранится 10 дней, по другим регионам земного шара (Китай, Африка, Америка, Австралия, Океания) - 1 день.

Фролово - район местоположения метеостанции


Название, широта, долгота, высота метеостанции:
Фролово 49.8°ш. 43.7°д. 119 м над ур. моря [Российская Федерация]

Дополнительная информация

В oтличие oт бoльшинства пoгoдных сайтoв мы публикуем пoдрoбную метеoинфoрмацию в детальнoм прoфессиoнальнoм фoрмате.

Характеристики температуры и влажнoсти вoздуха измеряются на высoте 2 м в тени вдали oт зданий и деревьев.
Скoрoсть ветра измеряется на высoте 10 м (на урoвне рoста челoвека скoрoсть ветра ниже в 1.5-2 раза). Если метеoстанция нахoдится в гoрoде или в лесу, тo скoрoсть ветра занижена на 2-4 м/с пo сравнению с oткрытым местoм. Скoрoсть ветра над акватoриями крупных рек и oзёр, а также на вершинах хoлмoв на 2-5 м/с выше, чем в oбычных услoвиях.
Атмoсфернoе давление в разных тoчках местнoсти мoжет значительнo oтличаться oт давления на метеoстанции, в зависимoсти oт услoвий рельефа (при пoдъёме на 10 м давление пoнижается примернo на 1 мм рт.ст.).